Volver al catálogo

CZ-6A DEB

ActivoSSO
NORAD 56655·DEBRIS·🇨🇳 China

Lanzado Nov 11, 2022 desde Taiyuan Satellite Launch Center

Loading…

Próximos Pases (próximas 24 horas)

TLE

EnvejeciendoSource: Space-Track

Época: Sep 9, 2026, 08:44 UTC

1 56655U 22151AGF 26252.36394870  .00001092  00000-0  34453-3 0  9999
2 56655  98.6183 289.7345 0085751 107.2350 253.8245 14.40205104177179

Sigue CZ-6A DEB en tiempo real con AllMySat

Download on the App Store